Alicante, Spain

6:12 AM CEST on July 21, 2017 (GMT +0200)
Alicante

Weather History for LEAL - October, 2012

Change the Weather History Date:

Tuesday, October 23, 2012

  Actual Average Record
Temperature  
Mean Temperature 65 °F -  
Max Temperature 75 °F 67 °F 84 °F (2013)
Min Temperature 55 °F 51 °F 53 °F (1998)
Growing Degree Days 15 (Base 50)    
Moisture  
Dew Point 57 °F    
Average Humidity 78    
Maximum Humidity 94    
Minimum Humidity 42    
Precipitation  
Precipitation 0.00 in - - ()
Sea Level Pressure  
Sea Level Pressure 30.09 in    
Wind  
Wind Speed 2 mph ()    
Max Wind Speed 7 mph    
Max Gust Speed -    
Visibility 7.4 miles    
Events      
Averages and records for this station are not official NWS values.
T = Trace of Precipitation, MM = Missing Value Source: Averaged Metar Reports

Daily Weather History Graph

Daily Weather History Graph

Search for Another Location

Airport or City:

Trip Planner

Search our weather history database for the weather conditions in past years. The results will help you decide how hot, cold, wet, or windy it might be!

Date:

Astronomy

Oct. 23, 2012 Rise Set
Actual Time 8:19 AM CEST 7:13 PM CEST
Civil Twilight 7:52 AM CEST 7:40 PM CEST
Nautical Twilight 7:21 AM CEST 8:10 PM CEST
Astronomical Twilight 6:50 AM CEST 8:41 PM CEST
Moon 3:43 PM CEST (10/23) 2:00 AM CEST (10/23)
Length of Visible Light 11h 47m
Length of Day
10h 53m
Waxing Gibbous, 64% of the Moon is Illuminated
Oct 23
Waxing Gibbous
Oct 29
Full
Nov 7
Last Quarter
Nov 13
New
Nov 20
First Quarter

Hourly Weather History & Observations

Time (CEST) Temp. Dew Point Humidity Pressure Visibility Wind Dir Wind Speed Gust Speed Precip Events Conditions
12:00 AM 62.6 °F 57.2 °F 82% 30.12 in 6.2 mi WNW 3.5 mph - N/A   Partly Cloudy
1:00 AM 59.0 °F 55.4 °F 88% 30.09 in 6.2 mi Variable 2.3 mph - N/A   Partly Cloudy
1:30 AM 57.2 °F 55.4 °F 94% 30.09 in 6.2 mi WNW 3.5 mph - N/A   Partly Cloudy
2:00 AM 58 °F 54 °F 80% 30.12 in 12 mi WNW 4.6 mph - -  
2:00 AM 59.0 °F 55.4 °F 88% 30.09 in 6.2 mi WNW 4.6 mph - N/A   Partly Cloudy
3:00 AM 57.2 °F 55.4 °F 94% 30.09 in 6.2 mi WNW 3.5 mph - N/A   Partly Cloudy
3:30 AM 57.2 °F 55.4 °F 94% 30.09 in 6.2 mi WNW 3.5 mph - N/A   Partly Cloudy
4:00 AM 57.2 °F 55.4 °F 94% 30.09 in 6.2 mi WNW 3.5 mph - N/A   Partly Cloudy
4:30 AM 59.0 °F 55.4 °F 88% 30.09 in 6.2 mi WNW 3.5 mph - N/A   Partly Cloudy
5:00 AM 59.0 °F 55.4 °F 88% 30.09 in 6.2 mi WNW 4.6 mph - N/A   Partly Cloudy
5:30 AM 57.2 °F 53.6 °F 88% 30.09 in 6.2 mi Variable 2.3 mph - N/A   Partly Cloudy
6:00 AM 57.2 °F 55.4 °F 94% 30.09 in 6.2 mi Variable 2.3 mph - N/A   Partly Cloudy
6:30 AM 57.2 °F 53.6 °F 88% 30.09 in 6.2 mi Variable 1.2 mph - N/A   Partly Cloudy
7:30 AM 55.4 °F 53.6 °F 94% 30.09 in 6.2 mi Calm Calm - N/A   Partly Cloudy
8:00 AM 56 °F 52 °F 80% 30.11 in 12 mi Calm Calm - -   Clear
8:00 AM 55.4 °F 53.6 °F 94% 30.09 in - Calm Calm - N/A   Clear
10:00 AM 64.4 °F 57.2 °F 77% 30.12 in - Variable 2.3 mph - N/A   Clear
10:30 AM 68.0 °F 55.4 °F 64% 30.12 in - Calm Calm - N/A   Clear
11:00 AM 68.0 °F 57.2 °F 68% 30.12 in - Calm Calm - N/A   Clear
12:30 PM 73.4 °F 55.4 °F 53% 30.12 in - Variable 1.2 mph - N/A   Clear
1:00 PM 77.0 °F 57.2 °F 50% 30.12 in - Variable 2.3 mph - N/A   Clear
2:00 PM 74 °F 55 °F 42% 30.09 in 16 mi South 3.5 mph - -   Clear
2:30 PM 77.0 °F 59.0 °F 54% 30.06 in - South 3.5 mph - N/A   Clear
3:00 PM 77.0 °F 59.0 °F 54% 30.06 in 6.2 mi South 5.8 mph - N/A   Partly Cloudy
4:30 PM 73.4 °F 57.2 °F 57% 30.06 in 6.2 mi South 6.9 mph - N/A   Partly Cloudy
5:30 PM 71.6 °F 60.8 °F 69% 30.06 in 6.2 mi South 5.8 mph - N/A   Partly Cloudy
6:00 PM 71.6 °F 60.8 °F 69% 30.06 in 6.2 mi South 5.8 mph - N/A   Partly Cloudy
6:30 PM 69.8 °F 60.8 °F 73% 30.06 in 6.2 mi South 3.5 mph - N/A   Partly Cloudy
7:00 PM 68.0 °F 60.8 °F 78% 30.06 in - Variable 2.3 mph - N/A   Clear
7:30 PM 68.0 °F 60.8 °F 78% 30.06 in - Calm Calm - N/A   Clear
8:00 PM 67 °F 58 °F 64% 30.09 in 12 mi Calm Calm - -   Clear
8:00 PM 66.2 °F 60.8 °F 83% 30.06 in - Calm Calm - N/A   Clear
8:30 PM 66.2 °F 60.8 °F 83% 30.06 in - Calm Calm - N/A   Clear
9:30 PM 66.2 °F 60.8 °F 83% 30.09 in - Variable 1.2 mph - N/A   Clear
10:00 PM 64.4 °F 60.8 °F 88% 30.09 in - Calm Calm - N/A   Clear
10:30 PM 64.4 °F 59.0 °F 83% 30.09 in - Calm Calm - N/A   Clear
11:00 PM 62.6 °F 59.0 °F 88% 30.09 in - Variable 1.2 mph - N/A   Clear
11:30 PM 60.8 °F 59.0 °F 94% 30.09 in - Variable 1.2 mph - N/A   Clear